Regional Weather Roundup
Issued by NWS Cleveland, OH

Home | Current Version | Previous Version | Graphics & Text | Print | Product List | Glossary On
Versions: 1 2 3 4 5 6 7 8 9 10 11 12 13 14 15 16 17 18 19 20 21 22 23 24 25 26 27 28 29 30 31 32 33 34 35 36 37 38 39 40 41 42 43 44 45 46 47 48 49 50
000
ASUS41 KCLE 261300
RWRCLE
OHIO REGIONAL WEATHER ROUNDUP
NATIONAL WEATHER SERVICE WILMINGTON, OH
900 AM EDT TUE SEP 26 2017

NOTE: "FAIR" INDICATES FEW OR NO CLOUDS BELOW 12,000 FEET WITH NO
SIGNIFICANT WEATHER AND/OR OBSTRUCTIONS TO VISIBILITY.

OHZ001>008-015>018-024>027-034-035-043-044-261400-
   NORTHWEST OHIO

CITY           SKY/WX    TMP DP  RH WIND       PRES   REMARKS
DEFIANCE       FAIR      68  62  81 SW3       30.02S
FINDLAY        FAIR      72  64  76 S5        30.02R
TOLEDO EXPRESS FAIR      71  64  78 SW5       30.01S
TOLEDO EXEC    FAIR      71  63  75 SW7       30.02R
LIMA           FAIR      71  64  78 S3        30.04R
$$

OHZ009>014-019>023-028>033-038-089-261400-
   NORTHEAST OHIO

CITY           SKY/WX    TMP DP  RH WIND       PRES   REMARKS
CLE-HOPKINS    FAIR      76  63  64 SW7       30.05R
CLE-LAKEFRONT  FAIR      75  62  64 S7        30.01S
CUY CO. ARPT   MOSUNNY   79  64  61 S6        30.04S
LORAIN-ELYRIA  FAIR      69  60  73 SW5       30.04S
ASHTABULA      FAIR      69  66  90 CALM      30.06R
AKRON-CANTON   FAIR      72  62  71 CALM      30.06S
WOOSTER        NOT AVBL
MANSFIELD      FAIR      70  64  81 S5        30.06S
YOUNGSTOWN     FAIR      70  66  87 CALM      30.06S
$$

OHZ042-051>053-060>062-070>072-077>081-261400-
  SOUTHWEST OHIO

CITY           SKY/WX    TMP DP  RH WIND       PRES   REMARKS
CINC-COVINGTON FAIR      73  67  81 CALM      30.04R
CINC-LUNKEN    FAIR      65  65 100 CALM      30.05R FOG
HAMILTON       FAIR      67  65  93 CALM      30.05S
DAYTON         NOT AVBL
WRIGHT-PAT AFB FAIR      67  66  96 CALM      30.05R
DAYTON GENERAL FAIR      70  64  81 CALM      30.04S
WILMINGTON     FAIR      69  66  90 CALM      30.05S
$$

OHZ036-037-039>041-045>050-054>059-063>069-073>076-082>088-261400-
  CENTRAL AND SOUTHEAST OHIO

CITY           SKY/WX    TMP DP  RH WIND       PRES   REMARKS
COLUMBUS       FAIR      71  65  81 CALM      30.04S
OSU AIRPORT    FAIR      70  67  90 CALM      30.05S
BOLTON FIELD   SUNNY     68  66  94 CALM      30.05S
RICKENBACK AFB NOT AVBL
NEWARK         FAIR      66  63  90 CALM      30.05S
MARION         FAIR      68  63  84 S5        30.05S
LANCASTER      FAIR      65  63  93 CALM      30.05F
ZANESVILLE     FAIR      66  62  87 CALM      30.06R
NEW PHILLY     FAIR      66  63  90 CALM      30.07R
$$




USA.gov is the U.S. government's official web portal to all federal, state and local government web resources and services.